Regional Weather Roundup
Issued by NWS Grand Forks, ND

Home | Current Version | Previous Version | Graphics & Text | Print | Product List | Glossary On
Versions: 1 2 3 4 5 6 7 8 9 10 11 12 13 14 15 16 17 18 19 20 21 22 23 24 25 26 27 28 29 30 31 32 33 34 35 36 37 38 39 40 41 42 43 44 45 46 47 48 49 50
000
ASUS43 KFGF 050310
RWRFGF
PRAIRIE TO PINES  WEATHER ROUNDUP
NATIONAL WEATHER SERVICE EASTERN NORTH DAKOTA/GRAND FORKS ND
1000 PM CDT SAT JUL 04 2015

 **SATELLITE DATA USED TO AUGMENT SKY COVER AT AUTOMATED STATIONS**
 *****  WEATHER ACROSS EASTERN NORTH DAKOTA  *****

CITY           SKY/WX    TMP DP  RH WIND       PRES   REMARKS
GRAND FORKS    CLOUDY    77  67  71 SE10      29.73R
GRAND FRKS AFB CLOUDY    77  68  74 S10       29.73S
GRAND FRKS NWS   N/A     77 N/A N/A S13         N/A
DEVILS LAKE    CLOUDY    81  64  57 SW14      29.69F
FARGO          PTCLDY    78  65  63 S10       29.78R
WAHPETON ARPT  CLEAR     72  63  73 S9        29.82R
$$

 ***** WEATHER ACROSS CENTRAL AND WESTERN NORTH DAKOTA  *****

CITY           SKY/WX    TMP DP  RH WIND       PRES   REMARKS
BISMARCK       CLOUDY    79  71  76 E5        29.74R
MINOT          TSTM      70  60  70 N15       29.75R
JAMESTOWN      CLOUDY    76  69  79 S10       29.76S
MINOT AFB      TSTM      68  68 100 SE13      29.71F
GARRISON         N/A     72  67  84 NE7       29.74R
WILLISTON      CLEAR     75  68  78 N12       29.77R
DICKINSON      PTCLDY    75  65  70 S6        29.74S
HETTINGER      CLOUDY    77  69  76 SE7       29.77F
$$

 *****  OTHER AIRPORT OBSERVATIONS IN OUR AREA  *****

CITY           SKY/WX    TMP DP  RH WIND       PRES   REMARKS
WALHALLA       FAIR      66  66 100 MISG      29.72S
GRAFTON AIRPOR FAIR      77  70  78 SE10      29.72F
VALLEY CITY AR FAIR      75  72  88 S10       29.78R
CANDO          FAIR      75  68  78 W22G39    29.74R
CAVALIER APRT  FAIR      75  68  78 E6        29.70S
GWINNER        FAIR      73  68  83 S7        29.81R
ROLLA          MOCLDY    64  64 100 N7        29.79R THUNDER
 ***** THE ABOVE OBSERVATIONS ARE NON NWS ARE NOT QUALITY
       CONTROLLED AND MAY MIS-REPORT RAIN FOR SNOW...
$$

  *****  WEATHER ACROSS NORTHERN MINNESOTA  *****

CITY           SKY/WX    TMP DP  RH WIND       PRES   REMARKS
FLAG ISLAND    NOT AVBL
WARROAD        CLOUDY    73  66  78 W15G21    29.82R THUNDER HAZE
ROSEAU         CLOUDY    70  61  73 N16G26    29.83R THUNDER
HALLOCK        CLOUDY    75  70  83 SE10      29.70F
THF RVR FALLS  CLOUDY    73  66  78 SE6       29.80R
BAUDETTE       CLOUDY    72  63  73 S5        29.82R
WASKISH        MOCLDY    70  66  88 SE5       29.84R FOG
CROOKSTON      CLOUDY    77  66  69 S9        29.78R
$$
  *****  WEATHER ACROSS CENTRAL AND WEST MINNESOTA  *****

CITY           SKY/WX    TMP DP  RH WIND       PRES   REMARKS
FOSSTON        PTCLDY    70  63  78 CALM      29.83R
BEMIDJI        CLEAR     69  65  84 SE5       29.86R FOG
PARK RAPIDS    CLEAR     74  64  71 SE6       29.86R
ELBOW LAKE     FAIR      72  65  78 SE7       29.85R
WADENA         CLEAR     72  64  78 S5        29.87R
DETROIT LAKES  CLEAR     75  63  64 S8        29.86R
MOORHEAD       PTCLDY    75  64  69 S10       29.80R
FERGUS FALLS   CLEAR     73  64  73 S10       29.83R
MORRIS MN      CLEAR     73  64  73 S6        29.85R HAZE
STAPLES        CLEAR     72  64  78 S5        29.87R
$$
  *****  WEATHER ELSEWHERE ACROSS MINNESOTA  *****

CITY           SKY/WX    TMP DP  RH WIND       PRES   REMARKS
DULUTH         PTCLDY    62  55  77 E6        29.94R
INTRNTL FALLS  CLOUDY    70  60  70 VRB3      29.85R
ELY            CLEAR     64  54  68 SE3       29.94R
CLOQUET        CLEAR     61  54  77 E3        29.93R
WHEATON        CLEAR     73  63  68 SE10      29.84R
BRAINERD       MOCLDY    74  66  76 S5        29.89R HAZE
HIBBING        CLOUDY    67  59  75 SE5       29.92R
ALEXANDRIA     CLEAR     73  64  73 S8        29.88R
SAINT CLOUD    CLEAR     73  65  75 S7        29.88R
MINNEAPOLIS    CLEAR     77  63  61 S8        29.90R
$$

  *****  WEATHER ACROSS SOUTH DAKOTA  *****

CITY           SKY/WX    TMP DP  RH WIND       PRES   REMARKS
SIOUX FALLS    PTCLDY    74  64  71 S10       29.88R
BROOKINGS      PTCLDY    73  63  68 S10       29.89R
WATERTOWN      MOCLDY    74  66  76 S12       29.86R
HURON          PTCLDY    76  67  73 SE12      29.79R
SISSETON         N/A     73  65  75 S9        29.81R
ABERDEEN       MOCLDY    77  66  68 SE10      29.79R
MITCHELL       CLEAR     76  67  73 SE16      29.82R
PIERRE         MOCLDY    80  69  69 SE14      29.72R
MOBRIDGE       CLOUDY    78  73  84 SE8       29.73R
RAPID CITY     CLEAR     73  67  81 N3        29.81R
$$

  *****  SOME WEATHER IN NEARBY STATES *****

CITY           SKY/WX    TMP DP  RH WIND       PRES   REMARKS
GLASGOW MT     CLEAR     76  51  41 NE13      29.79R
GREAT FALLS MT PTCLDY    80  48  32 NE7       29.77S
CHEYENNE WY    CLOUDY    72  52  49 S9        30.03S
SCOTTSBLUFF NE PTCLDY    71  65  81 NE6       29.86R
OMAHA NE       PTCLDY    73  63  70 S8        29.92R
DES MOINES IA  MOCLDY    73  60  63 SE7       29.95R
DAVENPORT IA   CLEAR     65  60  84 SE6       30.01R
CHICAGO IL     PTCLDY    68  57  68 SE6       30.02R
EAU CLAIRE WI  CLEAR     74  65  73 S6        29.92R HAZE
LA CROSSE WI   CLEAR     73  65  75 S6        29.94R
$$

  *****  SOME NATIONAL WEATHER *****

CITY           SKY/WX    TMP DP  RH WIND       PRES   REMARKS
LA GUARDIA NY  PTCLDY    72  58  61 S6        30.00R
RALEIGH NC     CLOUDY    77  68  73 SW10      30.04R
ATLANTA GA     LGT RAIN  75  71  87 SW9       30.09R
NEW ORLEANS LA MOCLDY    77  70  79 CALM      30.06R
OKLAHOMA CITY  PTCLDY    74  69  85 S8        29.94R
ALBUQUERQUE NM CLOUDY    79  53  40 W10       30.10R
SALT LAKE CITY LGT RAIN  82  58  43 S9        29.92R
LOS ANGELES CA CLOUDY    64  59  83 W13       29.90R
BOISE ID       MOCLDY    94  39  14 CALM      29.75S HX  90
SEATTLE WA     PTCLDY    87  41  19 N9        29.79S
$$

*** WEATHER ACROSS MANITOBA...SASKATCHEWAN AND ONTARIO ***
                ***ONTARIO***

CITY           SKY/WX    TMP DP  RH WIND       PRES   REMARKS
GERALDTON      MOCLDY    61  54  77 S6        29.95R
THUNDER BAY    MOCLDY    57  55  94 NE5       29.96R
SIOUX LOOKOUT  CLOUDY    70  57  64 S7        29.82S
TORONTO        NOT AVBL
BIG TROUT LK   CLOUDY    63  63 100 N5        29.69R
PICKLE LAKE    NOT AVBL
DRYDEN         CLEAR     72  57  60 S12       29.81S
KENORA         TSTM      63  61  94 NW16G25   29.85R
$$
                *** MANITOBA***

CITY           SKY/WX    TMP DP  RH WIND       PRES   REMARKS
BRANDON        MOCLDY    64  63  94 CALM      29.77R
DAUPHIN        CLOUDY    61  57  88 W5        29.78R FOG
ISLAND LAKE    CLOUDY    59  57  94 N5        29.65R
PILOT MOUND      N/A     68  64  88 E9          N/A
THE PAS        SMOKE     63  50  63 W10       29.73R VSB 3/4
THOMPSON       TSTM      59  54  82 NW10G17   29.64R
WINNIPEG       LGT RAIN  64  64 100 S8        29.75R
LYNN LAKE      CLOUDY    50  46  87 N13       29.74R
CHURCHILL      LGT RAIN  41  41 100 E24G35    29.71S FOG
GILLAM         LGT RAIN  63  59  88 SW8       29.59R
$$
                ***SASKATCHEWAN***

CITY           SKY/WX    TMP DP  RH WIND       PRES   REMARKS
ESTEVAN        MOCLDY    68  61  77 NE6       29.81R
KINDERSLEY     CLOUDY    63  48  59 N23G31    29.95R
LLOYDMINSTER   MOCLDY    59  46  63 W7        29.93R
PRINCE ALBERT  CLOUDY    55  48  76 VRB2      29.84S SMOKE
REGINA         MOCLDY    70  59  68 N8        29.83R SMOKE
YORKTON        FOG       64  63  94 N5        29.82R VSB 1
N. BATTLEFORD  MOCLDY    68  45  42 W10       29.90R
LA RONGE       NOT AVBL
SASKATOON      SMOKE     63  48  59 VRB2      29.88R VSB 1
SWIFT CURRENT  CLOUDY    68  46  45 NE10      29.87R HAZE
$$
NOTE: THESE ARE AUTOMATED STATIONS WITH LIMITED QUALITY CONTROL
      "FAIR" INDICATES FEW OR NO CLOUDS BELOW 12,000 FEET WITH NO
      SIGNIFICANT WEATHER AND/OR OBSTRUCTIONS TO VISIBILITY.
      SKY/WX - SKY CONDITION AND SIGNIFICANT WEATHER.
      TMP - AIR TEMPERATURE.    DP   - DEWPOINT TEMPERATURE.
      RH  - RELATIVE HUMIDITY.  PRES - PRESSURE.
      HX  - HEAT INDEX.         WCI  - WIND CHILL INDEX.
$



USA.gov is the U.S. government's official web portal to all federal, state and local government web resources and services.